Location: Unspecified
(0.0000°N, 0.0000°E)
Time: 07:02:24
(UTC+00:00)

Vanguard 3 - Visible Passes

Search period start: 30 July 2014 00:00
Search period end: 09 August 2014 00:00
Orbit: 508 x 3279 km, 33.3° (Epoch: 29 July)

Date Brightness Start Highest point End Pass type
(mag) Time Alt. Az. Time Alt. Az. Time Alt. Az.
30 Jul 9.1 20:15:17 10° SW 20:19:22 25° SSW 20:19:22 25° SSW visible
31 Jul 8.9 19:02:02 10° SSW 19:09:32 23° SSE 19:12:08 19° SE visible
31 Jul 10.0 21:16:15 10° WSW 21:16:56 13° WSW 21:16:56 13° WSW visible
01 Aug 8.1 20:02:37 10° SW 20:09:47 45° S 20:09:47 45° S visible
02 Aug 10.7 05:06:49 10° NNE 05:08:47 11° NE 05:10:57 10° NE visible
02 Aug 8.8 18:48:49 10° SW 18:58:20 32° SSE 19:02:39 18° ESE visible
02 Aug 9.5 21:04:19 10° WSW 21:07:28 23° WSW 21:07:28 23° WSW visible
03 Aug 7.4 19:50:02 10° SW 19:59:39 73° SSE 20:00:24 66° ESE visible
04 Aug 10.6 04:53:51 10° NNE 04:57:11 13° NE 05:01:10 10° ENE visible
04 Aug 8.7 18:35:44 10° SW 18:47:01 44° SSE 18:53:21 11° E visible
04 Aug 8.9 20:52:29 10° WSW 20:58:10 33° WNW 20:58:10 33° WNW visible
05 Aug 7.8 19:37:31 10° SW 19:48:05 85° NW 19:51:09 34° NE visible
06 Aug 10.4 04:41:28 10° N 04:45:28 15° NE 04:50:38 10° ENE visible
06 Aug 8.6 18:22:42 10° SW 18:35:31 58° SSE 18:42:34 10° ENE visible
06 Aug 9.0 20:40:45 10° W 20:48:02 30° NW 20:48:57 29° NNW visible
07 Aug 9.9 05:38:41 10° NNW 05:45:40 39° NE 05:57:29 10° ESE visible
07 Aug 8.4 19:25:04 10° WSW 19:36:21 66° NW 19:41:55 14° NE visible
08 Aug 10.1 04:29:20 10° N 04:33:43 18° NE 04:39:42 10° E visible
08 Aug 9.5 20:29:11 10° W 20:36:14 24° NW 20:39:40 16° N visible
